Regional Weather Roundup
Issued by NWS

Home | Current Version | Previous Version | Graphics & Text | Print | Product List | Glossary On
Versions: 1 2 3 4 5 6 7 8 9 10 11 12 13 14 15 16 17 18 19 20 21 22 23 24 25 26 27 28 29 30 31 32 33 34 35 36 37 38 39 40 41 42 43 44 45 46 47 48 49 50
000
ASUS45 KCYS 291210
RWRWY

WYOMING REGIONAL WEATHER ROUNDUP
NATIONAL WEATHER SERVICE CHEYENNE WY
600 AM MDT FRI MAY 29 2015

NOTE:  "FAIR" INDICATES FEW OR NO CLOUDS BELOW 12,000 FEET
WITH NO SIGNIFICANT WEATHER AND/OR OBSTRUCTIONS TO VISIBILITY.

WYZ001-291300-
YELLOWSTONE NATIONAL PARK

CITY           SKY/WX    TMP DP  RH WIND       PRES   REMARKS
LK YELLOWSTONE   N/A     31  29  92 CALM      30.33F
6HR MIN TEMP:  31; 6HR MAX TEMP:  38;

W YELLOWSTONE  NOT AVBL

$$
WYZ002>013-054>058-071-098>099-291300-
NORTHERN WYOMING

CITY           SKY/WX    TMP DP  RH WIND       PRES   REMARKS
JACKSON        CLOUDY    37  37 100 CALM      30.29S
CODY           CLOUDY    46  46 100 N6        30.27R
GREYBULL       LGT RAIN  50  48  93 NW9       30.22R
6HR MIN TEMP:  50; 6HR MAX TEMP:  56; 6HR PCP:  0.03;

WORLAND        CLOUDY    51  48  89 N10       30.21R
6HR MIN TEMP:  51; 6HR MAX TEMP:  53; 6HR PCP: TRACE;

SHERIDAN       CLOUDY    47  46  97 N12       30.26R FOG
6HR MIN TEMP:  48; 6HR MAX TEMP:  52; 6HR PCP:  0.80;

BUFFALO        LGT RAIN  46  44  93 N21G28    30.23R
6HR MIN TEMP:  46; 6HR MAX TEMP:  50; 6HR PCP:  0.25;

GILLETTE       RAIN      47  45  93 N15       30.20R
6HR MIN TEMP:  47; 6HR MAX TEMP:  52; 6HR PCP:  0.24;

HULETT         RAIN      45  43  93 N13       30.21R
NEWCASTLE      DRIZZLE   50  46  87 NW13      30.13R

$$
WYZ014>020-022>026-101>103-291300-
CENTRAL WYOMING

CITY           SKY/WX    TMP DP  RH WIND       PRES   REMARKS
BIG PINEY      FAIR      34  31  88 CALM      30.29R
6HR MIN TEMP:  33; 6HR MAX TEMP:  41;

PINEDALE       FAIR      32  32 100 W3        30.30R
DUBOIS         FAIR      34  32  93 NW8       30.28R WCI  27
LANDER         CLOUDY    48  43  82 W6        30.24R
6HR MIN TEMP:  46; 6HR MAX TEMP:  48; 6HR PCP:  0.03;

RIVERTON       CLOUDY    48  45  89 NE3       30.25R
6HR MIN TEMP:  47; 6HR MAX TEMP:  50; 6HR PCP:  0.01;

CASPER         LGT RAIN  46  44  93 NW10      30.22R
6HR MIN TEMP:  45; 6HR MAX TEMP:  49; 6HR PCP:  0.18;

DOUGLAS        CLOUDY    51  48  89 NW7       30.18R
6HR MIN TEMP:  51; 6HR MAX TEMP:  53; 6HR PCP: TRACE;


$$
WYZ021-027>030-104>119-291300-
SOUTHERN WYOMING

CITY           SKY/WX    TMP DP  RH WIND       PRES   REMARKS
EVANSTON       FAIR      40  34  79 S5        30.28R
6HR MIN TEMP:  38; 6HR MAX TEMP:  48;

KEMMERER       FAIR      34  34 100 N8        30.29R WCI  27
FORT BRIDGER   MOSUNNY   41  37  87 CALM      30.31R
ROCK SPRINGS   CLOUDY    42  38  85 E5        30.28R
6HR MIN TEMP:  39; 6HR MAX TEMP:  43;

DIXON          CLOUDY    45  42  88 CALM      30.28R
RAWLINS        CLOUDY    41  39  93 NW8       30.26R
6HR MIN TEMP:  40; 6HR MAX TEMP:  47; 6HR PCP:  0.01;

SARATOGA       CLOUDY    41  37  87 NW7       30.27R
LARAMIE        CLOUDY    43  39  86 CALM      30.22R
6HR MIN TEMP:  43; 6HR MAX TEMP:  47;

CHEYENNE       CLOUDY    48  40  73 N7        30.18R
6HR MIN TEMP:  46; 6HR MAX TEMP:  50;

TORRINGTON     FAIR      53  49  86 W9        30.10R
6HR MIN TEMP:  51; 6HR MAX TEMP:  57;

PINE BLUFFS    FAIR      46  45  93 NW6       30.16R

$$



USA.gov is the U.S. government's official web portal to all federal, state and local government web resources and services.